Regional Weather Roundup
Issued by NWS

Home | Current Version | Previous Version | Text Only | Print | Product List | Glossary Off
Versions: 1 2 3 4 5 6 7 8 9 10 11 12 13 14 15 16 17 18 19 20 21 22 23 24 25 26 27 28 29 30 31 32 33 34 35 36 37 38 39 40 41 42 43 44 45 46 47 48 49 50

000
ASUS44 KMEG 030410
RWRTN
TENNESSEE HOURLY STATE WEATHER ROUNDUP
NATIONAL WEATHER SERVICE MEMPHIS TN
1000 PM CST MON MAR 02 2015

TNZ002-004-019-021-049-052-054-088>092-030500-
WEST TENNESSEE

CITY           SKY/WX    TMP DP  RH WIND       PRES   REMARKS
MEMPHIS INTL   CLOUDY    43  37  81 CALM      30.24F
NWS MEMPHIS      N/A     42 N/A N/A MISG        N/A
JACKSON        CLOUDY    46  33  60 VRB3      30.22F
DYERSBURG      CLOUDY    37  19  48 E5        30.26F WCI  34
UNION CITY     CLOUDY    37  27  65 NE3       30.23F
PARIS          CLOUDY    37  25  60 NE3       30.25S
LEXINGTON      CLOUDY    45  30  57 CALM      30.22F
SAVANNAH       CLOUDY    45  39  81 CALM      30.23F
$$

TNZ008-025-027-028-033-062-065-066-030500-
NORTH MIDDLE TENNESSEE

CITY           SKY/WX    TMP DP  RH WIND       PRES   REMARKS
NASHVILLE      CLOUDY    45  31  58 E5        30.26F
CLARKSVILLE    CLOUDY    40  27  59 E9        30.26F WCI  34
SMYRNA         FAIR      45  32  60 SE5       30.27F
COOKEVILLE       N/A     41  34  75 CALM      30.25F
CROSSVILLE     CLOUDY    41  28  60 SE6       30.25F
$$

TNZ061-075-076-078-094-096-097-030500-
SOUTH MIDDLE TENNESSEE

CITY           SKY/WX    TMP DP  RH WIND       PRES   REMARKS
FAYETTEVILLE   CLOUDY    41  36  81 E3          N/A
TULLAHOMA      CLOUDY    43  36  75 CALM      30.26F
WINCHESTER     CLOUDY    43  37  81 NE3       30.27S
MCMINNVILLE    CLOUDY    43  36  75 SE3       30.25F
COLUMBIA         N/A     45  39  81 E5        30.23F
SHELBYVILLE    CLOUDY    45  37  76 S3        30.27F
$$

TNZ017-018-042-046-047-030500-
NORTHEAST TENNESSEE

CITY           SKY/WX    TMP DP  RH WIND       PRES   REMARKS
TRI CITIES     CLOUDY    35  28  75 CALM      30.29F
ELIZABETHTON   CLEAR     34  27  75 NE3       30.29F
$$

TNZ012-013-036-069-073-074-030500-
CENTRAL EAST TENNESSEE

CITY           SKY/WX    TMP DP  RH WIND       PRES   REMARKS
KNOXVILLE      LGT RAIN  41  37  86 N5        30.28F
OAK RIDGE      CLOUDY    41  32  70 CALM      30.30F
GATLINBURG     PTCLDY    36  36 100 CALM      30.27F
MORRISTOWN     CLEAR     37  36  93 NE5       30.28F WCI  34
$$

TNZ083-085-099-030500-
SOUTHEAST TENNESSEE

CITY           SKY/WX    TMP DP  RH WIND       PRES   REMARKS
CHATTANOOGA    CLOUDY    48  37  65 N3        30.30R
$$

SKY/WX REPORTED AS FAIR MEANS FEW OR NO CLOUDS BELOW
12 THOUSAND FEET.



USA.gov is the U.S. government's official web portal to all federal, state and local government web resources and services.